Location: Cartignies
(50.0929°N, 3.8447°E)
Time: 14:14:09
(UTC+00:00)

ATLAS 3B R/B - Pass Details

Date: 12 January 2026
Orbit: 936 x 1258 km, 63.8° (Epoch: 15 February)

Event Time Altitude Azimuth Distance (km) Brightness Sun altitude
Rises 17:43:56 0° 261° (W) 4,121 7.6 -15.0°
Reaches altitude 10° 17:46:55 10° 269° (W) 3,190 6.4 -15.4°
Maximum altitude 17:54:06 39° 336° (NNW) 1,806 3.9 -16.5°
Enters shadow 18:00:05 15° 38° (NE) 2,858 4.5 -17.5°
